| time (UTC) | temp C | wind direction | speed KPH | gust KPH | rain 1hr cm | rain 24hr cm | rain mn cm | humidity % | barometer mb |
| 20260904144457 | 20 | 170 | 6.4 | 17.7 | 0.41 | 4.52 | 3.84 | 92 | 1012.3 |
| 20260904143957 | 20 | 224 | 6.4 | 16.1 | 0.43 | 4.50 | 3.81 | 92 | 1012.6 |
| 20260904143457 | 20 | 244 | 8.0 | 20.9 | 0.46 | 4.47 | 3.78 | 92 | 1012.8 |
| 20260904142957 | 20 | 247 | 6.4 | 20.9 | 0.46 | 4.42 | 3.73 | 92 | 1013.5 |
| 20260904142457 | 20 | 203 | 4.8 | 8.0 | 0.46 | 4.37 | 3.68 | 92 | 1013.9 |
| 20260904134458 | 20 | 102 | 0.0 | 4.8 | 0.58 | 4.11 | 3.43 | 92 | 1013.4 |
| 20260904133958 | 20 | 260 | 1.6 | 4.8 | 0.56 | 4.06 | 3.38 | 92 | 1013.9 |
| 20260904133458 | 20 | 168 | 1.6 | 4.8 | 0.56 | 4.01 | 3.33 | 92 | 1014.5 |
| 20260904132959 | 20 | 213 | 1.6 | 3.2 | 0.53 | 3.96 | 3.28 | 92 | 1014.7 |
| 20260904132458 | 20 | 288 | 0.0 | 3.2 | 0.53 | 3.91 | 3.23 | 92 | 1015.1 |
| 20260904131958 | 21 | 280 | 0.0 | 4.8 | 0.56 | 3.89 | 3.20 | 92 | 1015.3 |
| 20260904131457 | 21 | 9 | 1.6 | 4.8 | 0.56 | 3.86 | 3.17 | 92 | 1015.2 |
| 20260904123459 | 20 | 101 | 0.0 | 1.6 | 0.28 | 3.51 | 2.77 | 92 | 1014.6 |
| 20260904122959 | 20 | 101 | 0.0 | 1.6 | 0.28 | 3.48 | 2.74 | 92 | 1014.6 |
| 20260904122459 | 20 | 101 | 0.0 | 1.6 | 0.36 | 3.43 | 2.69 | 92 | 1014.7 |
| 20260904121957 | 20 | 101 | 0.0 | 1.6 | 1.22 | 3.38 | 2.64 | 92 | 1014.8 |
| 20260904121458 | 20 | 101 | 0.0 | 0.0 | 1.45 | 3.35 | 2.62 | 92 | 1014.7 |
| 20260904120957 | 20 | 101 | 0.0 | 1.6 | 1.52 | 3.35 | 2.62 | 92 | 1014.5 |
| 20260904120458 | 20 | 101 | 0.0 | 1.6 | 1.52 | 3.33 | 2.59 | 92 | 1014.5 |
| 20260904120000 | 20 | 101 | 0.0 | 0.0 | 1.52 | 3.33 | 2.59 | 92 | 1014.6 |
| 20260904115457 | 20 | 101 | 0.0 | 0.0 | 1.55 | 3.33 | 2.59 | 92 | 1014.5 |
| 20260904114958 | 20 | 101 | 0.0 | 1.6 | 1.52 | 3.30 | 2.57 | 92 | 1014.5 |
| 20260904114457 | 20 | 101 | 0.0 | 3.2 | 1.52 | 3.30 | 2.57 | 92 | 1014.4 |
| 20260904113958 | 20 | 101 | 1.6 | 3.2 | 1.50 | 3.25 | 2.51 | 92 | 1014.3 |
| 20260904113458 | 20 | 192 | 1.6 | 4.8 | 1.47 | 3.23 | 2.49 | 92 | 1014.8 |
| 20260904112957 | 20 | 137 | 3.2 | 9.7 | 1.45 | 3.20 | 2.46 | 92 | 1014.6 |
| 20260904112457 | 21 | 247 | 1.6 | 9.7 | 1.22 | 2.95 | 2.21 | 92 | 1015.0 |
| 20260904111958 | 21 | 350 | 3.2 | 8.0 | 0.43 | 2.16 | 1.42 | 92 | 1014.9 |
| 20260904111457 | 21 | 280 | 1.6 | 4.8 | 0.18 | 1.91 | 1.17 | 92 | 1014.2 |
| 20260904110957 | 21 | 124 | 0.0 | 1.6 | 0.10 | 1.83 | 1.09 | 92 | 1013.6 |
| 20260904110458 | 21 | 124 | 0.0 | 3.2 | 0.08 | 1.80 | 1.07 | 92 | 1013.8 |
| 20260904105957 | 21 | 82 | 0.0 | 3.2 | 0.05 | 1.78 | 1.04 | 92 | 1013.5 |
| 20260904105456 | 21 | 214 | 0.0 | 1.6 | 0.05 | 1.78 | 1.04 | 92 | 1013.4 |
| 20260904104956 | 21 | 214 | 0.0 | 1.6 | 0.05 | 1.78 | 1.04 | 92 | 1013.5 |
| 20260904104456 | 21 | 202 | 0.0 | 1.6 | 0.05 | 1.78 | 1.04 | 92 | 1013.3 |
| 20260904103957 | 21 | 202 | 0.0 | 4.8 | 0.03 | 1.75 | 1.02 | 92 | 1012.8 |
| 20260904103457 | 21 | 202 | 1.6 | 4.8 | 0.03 | 1.75 | 1.02 | 92 | 1012.8 |
| 20260904102957 | 20 | 116 | 0.0 | 1.6 | 0.03 | 1.75 | 1.02 | 92 | 1013.1 |
| 20260904102457 | 20 | 116 | 0.0 | 1.6 | 0.00 | 1.73 | 0.99 | 92 | 1012.9 |
| 20260904101956 | 20 | 149 | 0.0 | 1.6 | 0.00 | 1.73 | 0.99 | 92 | 1012.6 |
| 20260904101457 | 20 | 149 | 0.0 | 1.6 | 0.00 | 1.73 | 0.99 | 92 | 1012.5 |
| 20260904100957 | 20 | 149 | 0.0 | 1.6 | 0.00 | 1.73 | 0.99 | 92 | 1012.6 |
| 20260904100457 | 20 | 149 | 0.0 | 1.6 | 0.00 | 1.73 | 0.99 | 92 | 1012.6 |
| 20260904095957 | 20 | 86 | 0.0 | 1.6 | 0.00 | 1.73 | 0.99 | 92 | 1012.4 |
| 20260904095457 | 20 | 86 | 0.0 | 1.6 | 0.00 | 1.73 | 0.99 | 92 | 1012.2 |
| 20260904094957 | 20 | 86 | 0.0 | 1.6 | 0.00 | 1.73 | 0.99 | 92 | 1012.1 |
| 20260904094456 | 20 | 86 | 0.0 | 1.6 | 0.00 | 1.73 | 0.99 | 92 | 1012.3 |
| 20260904093958 | 20 | 113 | 0.0 | 1.6 | 0.00 | 1.73 | 0.99 | 92 | 1012.5 |
| 20260904093456 | 20 | 113 | 0.0 | 1.6 | 0.00 | 1.73 | 0.99 | 92 | 1012.2 |
| 20260904092956 | 20 | 78 | 0.0 | 3.2 | 0.00 | 1.73 | 0.99 | 92 | 1012.1 |
| 20260904092456 | 20 | 61 | 0.0 | 1.6 | 0.00 | 1.73 | 0.99 | 92 | 1012.1 |
| 20260904091956 | 21 | 61 | 0.0 | 1.6 | 0.00 | 1.73 | 0.99 | 92 | 1012.2 |
| 20260904091456 | 21 | 61 | 0.0 | 1.6 | 0.03 | 1.73 | 0.99 | 92 | 1012.3 |
| 20260904090957 | 21 | 61 | 0.0 | 1.6 | 0.03 | 1.73 | 0.99 | 92 | 1012.2 |
| 20260904090457 | 21 | 61 | 0.0 | 3.2 | 0.08 | 1.73 | 0.99 | 92 | 1012.1 |
| 20260904085957 | 21 | 64 | 1.6 | 3.2 | 0.48 | 1.73 | 0.99 | 92 | 1011.9 |
| 20260904085456 | 21 | 64 | 0.0 | 3.2 | 0.56 | 1.73 | 0.99 | 92 | 1011.9 |
| 20260904084959 | 21 | 61 | 1.6 | 3.2 | 0.69 | 1.73 | 0.99 | 92 | 1012.3 |
| 20260904084456 | 21 | 63 | 1.6 | 3.2 | 0.99 | 1.73 | 0.99 | 92 | 1012.7 |
| 20260904083957 | 21 | 355 | 0.0 | 3.2 | 0.99 | 1.73 | 0.99 | 92 | 1012.9 |
| 20260904083457 | 21 | 355 | 0.0 | 3.2 | 0.99 | 1.73 | 0.99 | 92 | 1012.7 |
| 20260904082957 | 21 | 333 | 0.0 | 3.2 | 0.99 | 1.73 | 0.99 | 92 | 1012.8 |
| 20260904082457 | 21 | 333 | 0.0 | 3.2 | 0.99 | 1.73 | 0.99 | 92 | 1012.8 |
| 20260904074458 | 20 | 315 | 1.6 | 3.2 | 0.00 | 0.74 | 0.00 | 91 | 1013.2 |
| 20260904073958 | 20 | 39 | 0.0 | 1.6 | 0.00 | 0.74 | 0.00 | 91 | 1013.1 |
| 20260904073458 | 20 | 39 | 0.0 | 1.6 | 0.00 | 0.74 | 0.00 | 91 | 1012.6 |
| 20260904072958 | 20 | 39 | 0.0 | 0.0 | 0.00 | 0.74 | 0.00 | 91 | 1012.7 |
| 20260904072458 | 20 | 39 | 0.0 | 0.0 | 0.00 | 0.74 | 0.00 | 91 | 1012.6 |
| 20260904071957 | 20 | 39 | 0.0 | 0.0 | 0.00 | 0.74 | 0.00 | 91 | 1013.1 |
| 20260904071457 | 20 | 39 | 0.0 | 0.0 | 0.00 | 0.74 | 0.00 | 91 | 1013.2 |
| 20260904070957 | 20 | 39 | 0.0 | 0.0 | 0.00 | 0.74 | 0.00 | 91 | 1013.3 |
| 20260904070457 | 20 | 39 | 0.0 | 0.0 | 0.00 | 0.74 | 0.00 | 91 | 1013.2 |
| 20260904065959 | 20 | 39 | 0.0 | 0.0 | 0.00 | 0.74 | 0.00 | 91 | 1013.2 |
| 20260904065458 | 20 | 39 | 0.0 | 0.0 | 0.00 | 0.74 | 0.00 | 91 | 1013.2 |
| 20260904064958 | 20 | 39 | 0.0 | 0.0 | 0.00 | 0.74 | 0.00 | 91 | 1013.1 |
| 20260904064459 | 20 | 39 | 0.0 | 3.2 | 0.00 | 0.74 | 0.00 | 91 | 1012.6 |
| 20260904063958 | 20 | 39 | 0.0 | 3.2 | 0.00 | 0.74 | 0.00 | 91 | 1012.4 |
| 20260904063457 | 20 | 266 | 0.0 | 0.0 | 0.00 | 0.74 | 0.00 | 91 | 1012.8 |
| 20260904062957 | 20 | 266 | 0.0 | 0.0 | 0.00 | 0.74 | 0.00 | 91 | 1012.9 |
| 20260904062457 | 20 | 266 | 0.0 | 0.0 | 0.00 | 0.74 | 0.00 | 91 | 1013.0 |
| 20260904061957 | 20 | 266 | 0.0 | 1.6 | 0.00 | 0.74 | 0.00 | 91 | 1013.2 |
| 20260904061458 | 20 | 266 | 0.0 | 1.6 | 0.00 | 0.74 | 0.00 | 91 | 1013.2 |
| 20260904060958 | 20 | 266 | 0.0 | 0.0 | 0.00 | 0.74 | 0.00 | 90 | 1013.3 |
| 20260904060458 | 20 | 266 | 0.0 | 0.0 | 0.00 | 0.74 | 0.00 | 90 | 1013.3 |
| 20260904055959 | 20 | 266 | 0.0 | 0.0 | 0.00 | 0.74 | 0.00 | 90 | 1013.5 |
| 20260904055457 | 20 | 266 | 0.0 | 0.0 | 0.00 | 0.74 | 0.00 | 90 | 1013.8 |
| 20260904054957 | 20 | 266 | 0.0 | 0.0 | 0.00 | 0.74 | 0.00 | 90 | 1013.9 |
| 20260904054457 | 20 | 266 | 0.0 | 0.0 | 0.00 | 0.74 | 0.00 | 90 | 1014.0 |
| 20260904050958 | 20 | 266 | 0.0 | 0.0 | 0.00 | 0.74 | 0.00 | 90 | 1013.4 |
| 20260904050458 | 20 | 266 | 0.0 | 0.0 | 0.00 | 0.74 | 0.00 | 90 | 1013.4 |
| 20260904045957 | 20 | 266 | 0.0 | 0.0 | 0.00 | 0.74 | 0.00 | 90 | 1013.4 |
| 20260904045457 | 20 | 266 | 0.0 | 0.0 | 0.00 | 0.74 | 0.00 | 90 | 1013.4 |
| 20260904044957 | 20 | 266 | 0.0 | 0.0 | 0.00 | 0.74 | 0.00 | 90 | 1013.5 |
| 20260904044457 | 20 | 266 | 0.0 | 0.0 | 0.00 | 0.74 | 0.00 | 90 | 1013.5 |
| 20260904043957 | 20 | 266 | 0.0 | 0.0 | 0.00 | 0.74 | 0.00 | 90 | 1013.6 |
| 20260904043456 | 20 | 266 | 0.0 | 0.0 | 0.00 | 0.74 | 0.00 | 90 | 1013.8 |
| 20260904042957 | 21 | 266 | 0.0 | 0.0 | 0.00 | 0.74 | 0.00 | 90 | 1013.8 |
| 20260904042456 | 21 | 266 | 0.0 | 0.0 | 0.00 | 0.74 | 0.00 | 90 | 1014.0 |
| 20260904041957 | 21 | 266 | 0.0 | 0.0 | 0.00 | 0.74 | 0.00 | 90 | 1014.0 |
| 20260904041456 | 21 | 266 | 0.0 | 0.0 | 0.00 | 0.74 | 0.00 | 90 | 1014.0 |
| 20260904040957 | 21 | 266 | 0.0 | 0.0 | 0.00 | 0.74 | 0.00 | 89 | 1014.0 |
| 20260904040456 | 21 | 266 | 0.0 | 0.0 | 0.00 | 0.74 | 0.00 | 89 | 1014.2 |
| 20260904040003 | 21 | 266 | 0.0 | 0.0 | 0.00 | 0.74 | 0.00 | 89 | 1014.2 |
| 20260904035458 | 21 | 266 | 0.0 | 0.0 | 0.00 | 0.74 | 0.74 | 89 | 1014.2 |
| 20260904034959 | 21 | 266 | 0.0 | 0.0 | 0.00 | 0.74 | 0.74 | 89 | 1014.1 |
| 20260904034458 | 21 | 266 | 0.0 | 1.6 | 0.00 | 0.74 | 0.74 | 89 | 1014.0 |
| 20260904033959 | 21 | 266 | 0.0 | 1.6 | 0.00 | 0.74 | 0.74 | 89 | 1014.1 |
| 20260904033459 | 21 | 266 | 0.0 | 0.0 | 0.00 | 0.74 | 0.74 | 89 | 1014.1 |
| 20260904032958 | 21 | 266 | 0.0 | 1.6 | 0.00 | 0.74 | 0.74 | 89 | 1014.3 |
| 20260904032458 | 21 | 266 | 0.0 | 1.6 | 0.00 | 0.74 | 0.74 | 89 | 1014.3 |
| 20260904031959 | 21 | 266 | 0.0 | 1.6 | 0.00 | 0.74 | 0.74 | 89 | 1014.2 |
| 20260904031458 | 21 | 266 | 0.0 | 1.6 | 0.00 | 0.74 | 0.74 | 89 | 1014.2 |
| 20260904030958 | 21 | 266 | 0.0 | 1.6 | 0.00 | 0.74 | 0.74 | 89 | 1014.1 |
| 20260904030458 | 21 | 213 | 0.0 | 1.6 | 0.00 | 0.74 | 0.74 | 89 | 1014.1 |
| 20260904022958 | 21 | 186 | 0.0 | 3.2 | 0.00 | 0.74 | 0.74 | 89 | 1014.0 |
| 20260904022458 | 21 | 228 | 0.0 | 1.6 | 0.00 | 0.74 | 0.74 | 89 | 1013.8 |
| 20260904021958 | 21 | 197 | 0.0 | 1.6 | 0.00 | 0.74 | 0.74 | 89 | 1013.8 |
| 20260904021459 | 21 | 253 | 0.0 | 1.6 | 0.00 | 0.74 | 0.74 | 89 | 1013.8 |
| 20260904020959 | 21 | 253 | 0.0 | 3.2 | 0.00 | 0.74 | 0.74 | 89 | 1014.1 |
| 20260904020459 | 21 | 166 | 0.0 | 3.2 | 0.00 | 0.74 | 0.74 | 89 | 1013.8 |
| 20260904020000 | 21 | 199 | 0.0 | 1.6 | 0.00 | 0.74 | 0.74 | 89 | 1013.7 |
| 20260904012459 | 21 | 271 | 1.6 | 3.2 | 0.00 | 0.74 | 0.74 | 87 | 1013.6 |
| 20260904011958 | 21 | 211 | 0.0 | 1.6 | 0.00 | 0.74 | 0.74 | 88 | 1013.5 |
| 20260904011458 | 21 | 211 | 0.0 | 0.0 | 0.00 | 0.74 | 0.74 | 87 | 1013.7 |
| 20260904010958 | 21 | 211 | 0.0 | 0.0 | 0.00 | 0.74 | 0.74 | 87 | 1013.5 |
| 20260904010459 | 22 | 211 | 0.0 | 0.0 | 0.00 | 0.74 | 0.74 | 86 | 1013.5 |
| 20260904005958 | 22 | 211 | 0.0 | 0.0 | 0.00 | 0.74 | 0.74 | 86 | 1013.5 |
| 20260904005458 | 22 | 211 | 0.0 | 0.0 | 0.00 | 0.74 | 0.74 | 86 | 1013.3 |
| 20260904004958 | 22 | 211 | 0.0 | 0.0 | 0.00 | 0.74 | 0.74 | 86 | 1013.3 |
| 20260904004459 | 22 | 211 | 0.0 | 0.0 | 0.00 | 0.74 | 0.74 | 86 | 1013.3 |
| 20260904003958 | 22 | 211 | 0.0 | 0.0 | 0.00 | 0.74 | 0.74 | 85 | 1013.2 |
| 20260904003458 | 22 | 211 | 0.0 | 0.0 | 0.00 | 0.74 | 0.74 | 85 | 1013.3 |
| 20260904002958 | 22 | 211 | 0.0 | 0.0 | 0.00 | 0.74 | 0.74 | 86 | 1013.2 |
| 20260904002458 | 22 | 211 | 0.0 | 0.0 | 0.00 | 0.74 | 0.74 | 86 | 1013.2 |
| 20260904001959 | 22 | 211 | 0.0 | 0.0 | 0.00 | 0.74 | 0.74 | 86 | 1013.1 |
| 20260904001458 | 23 | 211 | 0.0 | 0.0 | 0.00 | 0.74 | 0.74 | 86 | 1013.0 |
| 20260904000958 | 23 | 211 | 0.0 | 0.0 | 0.00 | 0.74 | 0.74 | 86 | 1012.7 |
| 20260904000458 | 23 | 211 | 0.0 | 0.0 | 0.00 | 0.74 | 0.74 | 86 | 1012.7 |
| 20260903235959 | 23 | 211 | 0.0 | 0.0 | 0.00 | 0.74 | 0.74 | 86 | 1012.7 |
| 20260903235458 | 23 | 211 | 0.0 | 0.0 | 0.00 | 0.74 | 0.74 | 86 | 1013.0 |
| 20260903234958 | 23 | 211 | 0.0 | 0.0 | 0.00 | 0.74 | 0.74 | 85 | 1013.0 |
| 20260903234458 | 23 | 211 | 0.0 | 1.6 | 0.00 | 0.74 | 0.74 | 85 | 1013.1 |
| 20260903233958 | 23 | 211 | 0.0 | 1.6 | 0.00 | 0.74 | 0.74 | 84 | 1013.1 |
| 20260903233459 | 23 | 211 | 0.0 | 1.6 | 0.00 | 0.74 | 0.74 | 84 | 1013.0 |
| 20260903232958 | 23 | 211 | 0.0 | 3.2 | 0.00 | 0.74 | 0.74 | 84 | 1012.9 |
| 20260903232458 | 23 | 211 | 0.0 | 3.2 | 0.00 | 0.74 | 0.74 | 85 | 1012.7 |
| 20260903231959 | 23 | 97 | 0.0 | 0.0 | 0.00 | 0.74 | 0.74 | 84 | 1012.8 |
| 20260903231458 | 23 | 97 | 0.0 | 1.6 | 0.00 | 0.74 | 0.74 | 84 | 1012.8 |
| 20260903230958 | 23 | 97 | 0.0 | 4.8 | 0.00 | 0.74 | 0.74 | 84 | 1012.9 |
| 20260903230459 | 23 | 49 | 1.6 | 4.8 | 0.00 | 0.74 | 0.74 | 84 | 1012.7 |
| 20260903225958 | 23 | 167 | 0.0 | 1.6 | 0.00 | 0.74 | 0.74 | 84 | 1012.6 |
| 20260903225458 | 23 | 167 | 0.0 | 4.8 | 0.00 | 0.74 | 0.74 | 85 | 1012.8 |
| 20260903224959 | 23 | 167 | 1.6 | 4.8 | 0.00 | 0.74 | 0.74 | 85 | 1012.6 |
| 20260903224458 | 23 | 49 | 1.6 | 6.4 | 0.00 | 0.74 | 0.74 | 85 | 1012.6 |
| 20260903223958 | 23 | 345 | 1.6 | 6.4 | 0.00 | 0.74 | 0.74 | 84 | 1012.6 |
| 20260903223458 | 23 | 163 | 0.0 | 6.4 | 0.00 | 0.74 | 0.74 | 85 | 1012.6 |
| 20260903222959 | 24 | 244 | 1.6 | 6.4 | 0.00 | 0.74 | 0.74 | 85 | 1012.5 |
| 20260903222458 | 24 | 216 | 1.6 | 6.4 | 0.00 | 0.74 | 0.74 | 84 | 1012.5 |
| 20260903214458 | 24 | 83 | 0.0 | 4.8 | 0.00 | 0.74 | 0.74 | 85 | 1013.0 |
| 20260903213958 | 24 | 20 | 1.6 | 4.8 | 0.00 | 0.74 | 0.74 | 85 | 1013.0 |
| 20260903213459 | 23 | 41 | 0.0 | 6.4 | 0.00 | 0.74 | 0.74 | 87 | 1013.0 |
| 20260903212959 | 23 | 271 | 1.6 | 3.2 | 0.00 | 0.74 | 0.74 | 89 | 1013.0 |
| 20260903212458 | 22 | 276 | 0.0 | 4.8 | 0.00 | 0.74 | 0.74 | 89 | 1012.9 |
| 20260903211958 | 22 | 64 | 1.6 | 4.8 | 0.00 | 0.74 | 0.74 | 89 | 1012.9 |
| 20260903211458 | 22 | 72 | 1.6 | 4.8 | 0.00 | 0.74 | 0.74 | 89 | 1012.8 |
| 20260903210958 | 22 | 85 | 0.0 | 4.8 | 0.00 | 0.74 | 0.74 | 89 | 1013.0 |
| 20260903210458 | 22 | 136 | 1.6 | 4.8 | 0.00 | 0.74 | 0.74 | 89 | 1013.0 |
| 20260903205959 | 22 | 75 | 1.6 | 6.4 | 0.00 | 0.74 | 0.74 | 90 | 1013.0 |
| 20260903205458 | 22 | 41 | 0.0 | 6.4 | 0.00 | 0.74 | 0.74 | 90 | 1012.7 |
| 20260903204958 | 22 | 49 | 1.6 | 6.4 | 0.00 | 0.74 | 0.74 | 90 | 1012.5 |
| 20260903204458 | 22 | 16 | 1.6 | 8.0 | 0.00 | 0.74 | 0.74 | 90 | 1012.6 |
| 20260903203958 | 22 | 129 | 1.6 | 8.0 | 0.00 | 0.74 | 0.74 | 90 | 1012.8 |
| 20260903203459 | 22 | 49 | 0.0 | 4.8 | 0.00 | 0.74 | 0.74 | 90 | 1013.0 |
| 20260903202958 | 22 | 103 | 0.0 | 6.4 | 0.00 | 0.74 | 0.74 | 90 | 1013.0 |
| 20260903202458 | 22 | 129 | 0.0 | 3.2 | 0.00 | 0.74 | 0.74 | 90 | 1013.4 |
| 20260903201957 | 22 | 129 | 1.6 | 3.2 | 0.00 | 0.74 | 0.74 | 90 | 1013.2 |
| 20260903201458 | 22 | 76 | 0.0 | 3.2 | 0.00 | 0.74 | 0.74 | 90 | 1013.5 |
| 20260903200958 | 22 | 68 | 0.0 | 1.6 | 0.00 | 0.74 | 0.74 | 90 | 1013.5 |
| 20260903193458 | 23 | 101 | 0.0 | 3.2 | 0.03 | 0.74 | 0.74 | 90 | 1013.8 |
| 20260903192958 | 23 | 101 | 1.6 | 3.2 | 0.08 | 0.74 | 0.74 | 90 | 1013.9 |
| 20260903192458 | 23 | 64 | 0.0 | 1.6 | 0.08 | 0.74 | 0.74 | 91 | 1014.1 |
| 20260903191958 | 22 | 41 | 0.0 | 1.6 | 0.08 | 0.74 | 0.74 | 91 | 1014.3 |
| 20260903191458 | 22 | 77 | 0.0 | 3.2 | 0.08 | 0.74 | 0.74 | 91 | 1014.5 |
| 20260903190958 | 22 | 77 | 1.6 | 3.2 | 0.08 | 0.74 | 0.74 | 90 | 1014.4 |
| 20260903190458 | 22 | 108 | 0.0 | 3.2 | 0.08 | 0.74 | 0.74 | 90 | 1014.4 |
| 20260903182959 | 24 | 211 | 1.6 | 6.4 | 0.61 | 0.66 | 0.66 | 89 | 1014.9 |
| 20260903182458 | 25 | 212 | 1.6 | 8.0 | 0.61 | 0.66 | 0.66 | 89 | 1014.7 |
| 20260903181958 | 24 | 211 | 1.6 | 8.0 | 0.61 | 0.66 | 0.66 | 89 | 1014.2 |
| 20260903181458 | 24 | 245 | 3.2 | 12.9 | 0.61 | 0.66 | 0.66 | 88 | 1013.9 |
| 20260903180959 | 24 | 328 | 3.2 | 16.1 | 0.61 | 0.66 | 0.66 | 87 | 1013.9 |
| 20260903180458 | 25 | 320 | 4.8 | 24.1 | 0.61 | 0.66 | 0.66 | 86 | 1013.9 |
| 20260903180001 | 26 | 234 | 3.2 | 25.7 | 0.61 | 0.66 | 0.66 | 82 | 1014.0 |
| 20260903175459 | 28 | 328 | 8.0 | 25.7 | 0.53 | 0.58 | 0.58 | 81 | 1014.1 |
| 20260903174958 | 28 | 220 | 3.2 | 12.9 | 0.46 | 0.51 | 0.51 | 80 | 1014.1 |
| 20260903174458 | 29 | 340 | 3.2 | 17.7 | 0.13 | 0.18 | 0.18 | 80 | 1013.7 |
| 20260903173957 | 29 | 289 | 4.8 | 16.1 | 0.03 | 0.08 | 0.08 | 79 | 1013.3 |
| 20260903173458 | 29 | 253 | 4.8 | 16.1 | 0.00 | 0.05 | 0.05 | 77 | 1013.2 |
| 20260903172959 | 30 | 13 | 8.0 | 14.5 | 0.00 | 0.05 | 0.05 | 76 | 1013.0 |
| 20260903172458 | 30 | 314 | 4.8 | 12.9 | 0.00 | 0.05 | 0.05 | 79 | 1012.6 |
| 20260903171958 | 30 | 10 | 3.2 | 12.9 | 0.00 | 0.05 | 0.05 | 80 | 1012.6 |
| 20260903171458 | 29 | 336 | 3.2 | 16.1 | 0.00 | 0.05 | 0.05 | 80 | 1012.7 |
| 20260903170959 | 29 | 281 | 4.8 | 16.1 | 0.00 | 0.05 | 0.05 | 79 | 1013.0 |
| 20260903170458 | 30 | 280 | 3.2 | 9.7 | 0.00 | 0.05 | 0.05 | 78 | 1012.8 |
| 20260903165958 | 30 | 213 | 3.2 | 8.0 | 0.00 | 0.05 | 0.05 | 78 | 1012.7 |
| 20260903165459 | 30 | 188 | 3.2 | 12.9 | 0.00 | 0.05 | 0.05 | 82 | 1012.3 |
| 20260903161958 | 29 | 242 | 1.6 | 9.7 | 0.00 | 0.05 | 0.05 | 85 | 1011.6 |
| 20260903161458 | 28 | 184 | 0.0 | 9.7 | 0.00 | 0.05 | 0.05 | 85 | 1011.9 |
| 20260903160958 | 28 | 305 | 4.8 | 9.7 | 0.00 | 0.05 | 0.05 | 86 | 1012.1 |
| 20260903160458 | 27 | 206 | 1.6 | 6.4 | 0.00 | 0.05 | 0.05 | 87 | 1012.0 |
| 20260903155959 | 27 | 151 | 1.6 | 6.4 | 0.00 | 0.05 | 0.05 | 87 | 1011.9 |
| 20260903155458 | 27 | 266 | 1.6 | 4.8 | 0.00 | 0.05 | 0.05 | 88 | 1012.0 |
| 20260903154959 | 27 | 145 | 0.0 | 4.8 | 0.00 | 0.05 | 0.05 | 89 | 1011.9 |
| 20260903154458 | 26 | 97 | 1.6 | 4.8 | 0.00 | 0.05 | 0.05 | 89 | 1012.1 |
| 20260903153958 | 26 | 18 | 1.6 | 4.8 | 0.00 | 0.05 | 0.05 | 88 | 1011.9 |
| 20260903153458 | 26 | 236 | 0.0 | 3.2 | 0.00 | 0.05 | 0.05 | 90 | 1011.9 |
| 20260903152959 | 26 | 215 | 0.0 | 0.0 | 0.00 | 0.05 | 0.05 | 89 | 1012.1 |
| 20260903152458 | 26 | 215 | 0.0 | 1.6 | 0.00 | 0.05 | 0.05 | 90 | 1012.1 |
| 20260903151958 | 26 | 227 | 0.0 | 1.6 | 0.00 | 0.05 | 0.05 | 90 | 1012.3 |
| 20260903151458 | 26 | 227 | 0.0 | 1.6 | 0.00 | 0.05 | 0.05 | 90 | 1012.3 |